Regional Weather Roundup
Issued by NWS

Home | Current Version | Previous Version | Text Only | Print | Product List | Glossary Off
Versions: 1 2 3 4 5 6 7 8 9 10 11 12 13 14 15 16 17 18 19 20 21 22 23 24 25 26 27

879
ASUS45 KBOI 220610
RWRID

IDAHO REGIONAL WEATHER ROUNDUP
NATIONAL WEATHER SERVICE BOISE ID
1200 AM MDT FRI MAY 22 2015

NOTE: "FAIR" INDICATES FEW OR NO CLOUDS BELOW 12000 FEET
WITH NO SIGNIFICANT WEATHER AND/OR OBSTRUCTIONS TO VISIBILITY

IDZ012-014-220700-
SOUTHWEST IDAHO


CITY           SKY/WX    TMP DP  RH WIND       PRES   REMARKS
BOISE          MOCLDY    59  47  64 SW6       29.85R
CALDWELL       PTCLDY    61  43  51 W8        29.85S
MOUNTAIN HOME  PTCLDY    53  41  63 NE3       29.85R
$$

IDZ016-017-220700-
SOUTHCENTRAL IDAHO


CITY           SKY/WX    TMP DP  RH WIND       PRES   REMARKS
BURLEY         CLOUDY    56  44  64 SE7       29.90S
JEROME         CLOUDY    56  45  66 E9        29.90S
TWIN FALLS     CLOUDY    52  46  80 SE6       29.88F
$$

IDZ019>023-220700-
SOUTHEAST IDAHO


CITY           SKY/WX    TMP DP  RH WIND       PRES   REMARKS
IDAHO FALLS    CLOUDY    52  46  80 SW8       29.95F
POCATELLO      PTCLDY    51  49  92 SE3       29.94F
REXBURG        CLOUDY    52  43  71 CALM      29.96R
$$

IDZ006-010-011-018-031-032-220700-
CENTRAL IDAHO MOUNTAINS


CITY           SKY/WX    TMP DP  RH WIND       PRES   REMARKS
MCCALL         PTCLDY    47  43  86 E3        29.92S
HAILEY         CLOUDY    46  45  93 NW8       29.97S
STANLEY          N/A     44  40  85 CALM      30.01S
SALMON         CLOUDY    54  45  71 CALM      29.93R
CHALLIS        CLOUDY    52  43  71 N9        29.95R
$$

IDZ002-004-006-007-026-220700-
NORTHERN IDAHO


CITY           SKY/WX    TMP DP  RH WIND       PRES   REMARKS
LEWISTON       MOCLDY    64  52  64 S5        29.80S
LOWELL           N/A     57  53  86 CALM      29.87R
COEUR D`ALENE  MOCLDY    63  46  55 S5        29.82R
MULLAN PASS    PTCLDY    49  38  65 S7        29.98R
$$



USA.gov is the U.S. government's official web portal to all federal, state and local government web resources and services.